Time,TemperatureF,DewpointF,PressureIn,WindDirection,WindDirectionDegrees,WindSpeedMPH,WindSpeedGustMPH,Humidity,HourlyPrecipIn,Conditions,Clouds,dailyrainin,SoftwareType,DateUTC
2013-11-16 00:00:00,54.4,51.5,29.74,SE,140,4.0,6.0,90,0.00,,,0.00,Wunderground v.1.15,2013-11-16 06:00:00,
2013-11-16 00:02:00,54.4,51.5,29.74,SE,133,4.0,6.0,90,0.00,,,0.00,Wunderground v.1.15,2013-11-16 06:02:00,
2013-11-16 00:04:00,54.5,51.6,29.74,SSE,166,5.0,6.0,90,0.00,,,0.00,Wunderground v.1.15,2013-11-16 06:04:00,
2013-11-16 00:06:00,54.5,51.6,29.74,SSE,164,5.0,6.0,90,0.00,,,0.00,Wunderground v.1.15,2013-11-16 06:06:00,
2013-11-16 00:12:00,54.6,51.7,29.74,South,182,6.0,7.0,90,0.00,,,0.00,Wunderground v.1.15,2013-11-16 06:12:00,
2013-11-16 00:16:00,54.6,51.7,29.74,South,173,5.0,7.0,90,0.00,,,0.00,Wunderground v.1.15,2013-11-16 06:16:00,
2013-11-16 00:19:00,54.7,51.8,29.74,SSE,157,5.0,7.0,90,0.00,,,0.00,Wunderground v.1.15,2013-11-16 06:19:00,
2013-11-16 00:20:00,54.7,51.8,29.74,SSE,151,4.0,16.0,90,0.00,,,0.00,Wunderground v.1.15,2013-11-16 06:20:00,
2013-11-16 00:24:00,54.8,51.9,29.74,South,169,4.0,16.0,90,0.00,,,0.00,Wunderground v.1.15,2013-11-16 06:24:00,
2013-11-16 00:26:00,54.9,52.0,29.74,SSE,163,4.0,16.0,90,0.00,,,0.00,Wunderground v.1.15,2013-11-16 06:26:00,
2013-11-16 00:28:00,54.9,52.0,29.74,South,188,4.0,16.0,90,0.00,,,0.00,Wunderground v.1.15,2013-11-16 06:28:00,
2013-11-16 00:32:00,55.0,52.1,29.74,South,182,4.0,7.0,90,0.00,,,0.00,Wunderground v.1.15,2013-11-16 06:32:00,
2013-11-16 00:34:00,55.1,52.2,29.74,SSE,166,3.0,7.0,90,0.00,,,0.00,Wunderground v.1.15,2013-11-16 06:34:00,
2013-11-16 00:38:00,55.1,52.2,29.73,South,169,4.0,10.0,90,0.00,,,0.00,Wunderground v.1.15,2013-11-16 06:38:00,
2013-11-16 00:40:00,55.1,52.2,29.73,SE,146,4.0,7.0,90,0.00,,,0.00,Wunderground v.1.15,2013-11-16 06:40:00,
2013-11-16 00:44:00,55.3,52.4,29.74,South,169,4.0,7.0,90,0.00,,,0.00,Wunderground v.1.15,2013-11-16 06:44:00,
2013-11-16 00:46:00,55.3,52.4,29.74,South,175,4.0,7.0,90,0.00,,,0.00,Wunderground v.1.15,2013-11-16 06:46:00,
2013-11-16 00:50:00,55.4,52.5,29.73,SE,133,5.0,11.0,90,0.00,,,0.00,Wunderground v.1.15,2013-11-16 06:50:00,
2013-11-16 00:52:00,55.5,52.6,29.73,SSE,164,5.0,11.0,90,0.00,,,0.00,Wunderground v.1.15,2013-11-16 06:52:00,
2013-11-16 00:56:00,55.6,52.7,29.72,SSE,160,4.0,11.0,90,0.00,,,0.00,Wunderground v.1.15,2013-11-16 06:56:00,
2013-11-16 01:00:00,55.7,52.8,29.72,SSE,149,4.0,4.0,90,0.00,,,0.00,Wunderground v.1.15,2013-11-16 07:00:00,
2013-11-16 01:04:00,55.7,52.8,29.72,SSE,153,4.0,6.0,90,0.00,,,0.00,Wunderground v.1.15,2013-11-16 07:04:00,
2013-11-16 01:06:00,55.8,52.9,29.72,South,169,4.0,7.0,90,0.00,,,0.00,Wunderground v.1.15,2013-11-16 07:06:00,
2013-11-16 01:09:00,55.9,53.0,29.71,SSE,149,4.0,7.0,90,0.00,,,0.00,Wunderground v.1.15,2013-11-16 07:09:00,
2013-11-16 01:14:00,56.0,53.1,29.71,South,171,5.0,5.0,90,0.00,,,0.00,Wunderground v.1.15,2013-11-16 07:14:00,
2013-11-16 01:16:00,56.1,53.2,29.71,SSE,151,5.0,5.0,90,0.00,,,0.00,Wunderground v.1.15,2013-11-16 07:16:00,
2013-11-16 01:19:00,56.1,53.2,29.71,South,175,5.0,11.0,90,0.00,,,0.00,Wunderground v.1.15,2013-11-16 07:19:00,
2013-11-16 01:20:00,56.2,53.3,29.71,SE,138,6.0,6.0,90,0.00,,,0.00,Wunderground v.1.15,2013-11-16 07:20:00,
2013-11-16 01:22:00,56.2,53.3,29.71,SSE,150,6.0,6.0,90,0.00,,,0.00,Wunderground v.1.15,2013-11-16 07:22:00,
2013-11-16 01:24:00,56.3,53.4,29.71,South,184,6.0,6.0,90,0.00,,,0.00,Wunderground v.1.15,2013-11-16 07:24:00,
2013-11-16 01:26:00,56.3,53.4,29.70,South,179,6.0,6.0,90,0.00,,,0.00,Wunderground v.1.15,2013-11-16 07:26:00,
2013-11-16 01:28:00,56.4,53.5,29.70,South,174,7.0,12.0,90,0.00,,,0.00,Wunderground v.1.15,2013-11-16 07:28:00,
2013-11-16 01:32:00,56.5,53.6,29.70,South,180,6.0,10.0,90,0.00,,,0.00,Wunderground v.1.15,2013-11-16 07:32:00,
2013-11-16 01:34:00,56.5,53.6,29.70,South,169,6.0,10.0,90,0.00,,,0.00,Wunderground v.1.15,2013-11-16 07:34:00,
2013-11-16 01:39:00,56.6,53.7,29.70,South,173,5.0,10.0,90,0.00,,,0.00,Wunderground v.1.15,2013-11-16 07:39:00,
2013-11-16 01:42:00,56.6,53.7,29.70,South,180,5.0,13.0,90,0.00,,,0.00,Wunderground v.1.15,2013-11-16 07:42:00,
2013-11-16 01:44:00,56.6,53.7,29.70,South,184,5.0,13.0,90,0.00,,,0.00,Wunderground v.1.15,2013-11-16 07:44:00,
2013-11-16 01:46:00,56.6,53.7,29.69,SSE,155,6.0,13.0,90,0.00,,,0.00,Wunderground v.1.15,2013-11-16 07:46:00,
2013-11-16 01:49:00,56.6,53.7,29.70,SSE,150,6.0,13.0,90,0.00,,,0.00,Wunderground v.1.15,2013-11-16 07:49:00,
2013-11-16 01:50:00,56.6,53.7,29.70,SSE,157,6.0,6.0,90,0.00,,,0.00,Wunderground v.1.15,2013-11-16 07:50:00,
2013-11-16 01:52:00,56.6,54.0,29.70,South,171,6.0,6.0,91,0.00,,,0.00,Wunderground v.1.15,2013-11-16 07:52:00,
2013-11-16 01:54:00,56.7,54.1,29.70,SSE,167,6.0,6.0,91,0.00,,,0.00,Wunderground v.1.15,2013-11-16 07:54:00,
2013-11-16 01:58:00,56.7,54.1,29.69,South,173,5.0,6.0,91,0.00,,,0.00,Wunderground v.1.15,2013-11-16 07:58:00,
2013-11-16 02:02:00,56.7,54.1,29.70,South,170,5.0,5.0,91,0.00,,,0.00,Wunderground v.1.15,2013-11-16 08:02:00,
2013-11-16 02:04:00,56.8,54.2,29.70,SSE,152,5.0,5.0,91,0.00,,,0.00,Wunderground v.1.15,2013-11-16 08:04:00,
2013-11-16 02:06:00,56.8,54.2,29.70,South,170,5.0,5.0,91,0.00,,,0.00,Wunderground v.1.15,2013-11-16 08:06:00,
2013-11-16 02:08:00,56.8,54.2,29.70,SSE,160,5.0,10.0,91,0.00,,,0.00,Wunderground v.1.15,2013-11-16 08:08:00,
2013-11-16 02:10:00,56.8,54.2,29.69,SSE,153,4.0,6.0,91,0.00,,,0.00,Wunderground v.1.15,2013-11-16 08:10:00,
2013-11-16 02:14:00,56.8,54.2,29.69,South,180,5.0,9.0,91,0.00,,,0.00,Wunderground v.1.15,2013-11-16 08:14:00,
2013-11-16 02:19:00,56.9,54.3,29.69,South,169,6.0,14.0,91,0.00,,,0.00,Wunderground v.1.15,2013-11-16 08:19:00,
2013-11-16 02:22:00,57.0,54.4,29.69,SSE,161,6.0,9.0,91,0.00,,,0.00,Wunderground v.1.15,2013-11-16 08:22:00,
2013-11-16 02:28:00,57.0,54.4,29.68,SSE,168,5.0,9.0,91,0.00,,,0.00,Wunderground v.1.15,2013-11-16 08:28:00,
2013-11-16 02:30:00,57.1,54.5,29.68,SSW,195,5.0,5.0,91,0.00,,,0.00,Wunderground v.1.15,2013-11-16 08:30:00,
2013-11-16 02:34:00,57.2,54.6,29.68,SE,144,6.0,7.0,91,0.00,,,0.00,Wunderground v.1.15,2013-11-16 08:34:00,
2013-11-16 02:36:00,57.2,54.6,29.69,SSE,167,6.0,7.0,91,0.00,,,0.00,Wunderground v.1.15,2013-11-16 08:36:00,
2013-11-16 02:38:00,57.3,54.7,29.68,SSE,150,6.0,8.0,91,0.00,,,0.00,Wunderground v.1.15,2013-11-16 08:38:00,
2013-11-16 02:42:00,57.4,54.8,29.69,SSE,167,7.0,12.0,91,0.00,,,0.00,Wunderground v.1.15,2013-11-16 08:42:00,
2013-11-16 02:44:00,57.5,54.9,29.68,SSE,165,7.0,12.0,91,0.00,,,0.00,Wunderground v.1.15,2013-11-16 08:44:00,
2013-11-16 02:48:00,57.5,54.9,29.68,SSE,164,7.0,12.0,91,0.00,,,0.00,Wunderground v.1.15,2013-11-16 08:48:00,
2013-11-16 02:50:00,57.6,55.0,29.68,SSE,160,6.0,10.0,91,0.00,,,0.00,Wunderground v.1.15,2013-11-16 08:50:00,
2013-11-16 02:52:00,57.6,55.0,29.68,SSW,192,6.0,10.0,91,0.00,,,0.00,Wunderground v.1.15,2013-11-16 08:52:00,
2013-11-16 02:56:00,57.7,55.1,29.68,South,183,6.0,11.0,91,0.00,,,0.00,Wunderground v.1.15,2013-11-16 08:56:00,
2013-11-16 03:00:00,57.8,55.2,29.68,SSE,167,6.0,7.0,91,0.00,,,0.00,Wunderground v.1.15,2013-11-16 09:00:00,
2013-11-16 03:02:00,57.9,55.3,29.68,SSE,168,5.0,7.0,91,0.00,,,0.00,Wunderground v.1.15,2013-11-16 09:02:00,
2013-11-16 03:04:00,57.9,55.3,29.67,SE,145,5.0,10.0,91,0.00,,,0.00,Wunderground v.1.15,2013-11-16 09:04:00,
2013-11-16 03:08:00,58.1,55.5,29.67,South,170,6.0,10.0,91,0.00,,,0.00,Wunderground v.1.15,2013-11-16 09:08:00,
2013-11-16 03:10:00,58.2,55.6,29.67,SSE,163,5.0,5.0,91,0.00,,,0.00,Wunderground v.1.15,2013-11-16 09:10:00,
2013-11-16 03:14:00,58.4,55.8,29.67,SSW,195,5.0,10.0,91,0.00,,,0.00,Wunderground v.1.15,2013-11-16 09:14:00,
2013-11-16 03:16:00,58.5,55.9,29.67,SSE,161,5.0,10.0,91,0.00,,,0.00,Wunderground v.1.15,2013-11-16 09:16:00,
2013-11-16 03:19:00,58.7,56.1,29.67,South,182,5.0,10.0,91,0.00,,,0.00,Wunderground v.1.15,2013-11-16 09:19:00,
2013-11-16 03:20:00,58.8,56.2,29.67,SSE,149,5.0,5.0,91,0.00,,,0.00,Wunderground v.1.15,2013-11-16 09:20:00,
2013-11-16 03:22:00,58.9,56.3,29.67,South,169,6.0,6.0,91,0.00,,,0.00,Wunderground v.1.15,2013-11-16 09:22:00,
2013-11-16 03:26:00,59.0,56.4,29.67,SSE,164,5.0,6.0,91,0.00,,,0.00,Wunderground v.1.15,2013-11-16 09:26:00,
2013-11-16 03:29:00,59.0,56.4,29.67,SSE,165,5.0,6.0,91,0.00,,,0.00,Wunderground v.1.15,2013-11-16 09:29:00,
2013-11-16 03:30:00,59.0,56.1,29.67,SSE,152,5.0,5.0,90,0.00,,,0.00,Wunderground v.1.15,2013-11-16 09:30:00,
2013-11-16 03:32:00,59.0,56.1,29.67,South,177,5.0,5.0,90,0.00,,,0.00,Wunderground v.1.15,2013-11-16 09:32:00,
2013-11-16 03:39:00,59.0,56.1,29.67,SSE,163,5.0,13.0,90,0.00,,,0.00,Wunderground v.1.15,2013-11-16 09:39:00,
2013-11-16 03:40:00,59.0,56.1,29.67,SSE,152,5.0,5.0,90,0.00,,,0.00,Wunderground v.1.15,2013-11-16 09:40:00,
2013-11-16 03:42:00,59.0,56.1,29.66,SSE,161,6.0,6.0,90,0.00,,,0.00,Wunderground v.1.15,2013-11-16 09:42:00,
2013-11-16 03:44:00,59.0,56.1,29.66,South,178,6.0,6.0,90,0.00,,,0.00,Wunderground v.1.15,2013-11-16 09:44:00,
2013-11-16 03:46:00,59.0,56.1,29.66,South,173,5.0,6.0,90,0.00,,,0.00,Wunderground v.1.15,2013-11-16 09:46:00,
2013-11-16 03:49:00,59.0,56.1,29.66,South,181,4.0,12.0,90,0.00,,,0.00,Wunderground v.1.15,2013-11-16 09:49:00,
2013-11-16 03:52:00,59.0,56.1,29.66,South,172,5.0,6.0,90,0.00,,,0.00,Wunderground v.1.15,2013-11-16 09:52:00,
2013-11-16 03:56:00,59.0,56.1,29.66,South,187,5.0,6.0,90,0.00,,,0.00,Wunderground v.1.15,2013-11-16 09:56:00,
2013-11-16 03:58:00,59.0,56.1,29.66,South,178,4.0,9.0,90,0.00,,,0.00,Wunderground v.1.15,2013-11-16 09:58:00,
2013-11-16 04:00:00,59.1,56.2,29.66,South,178,4.0,4.0,90,0.00,,,0.00,Wunderground v.1.15,2013-11-16 10:00:00,
2013-11-16 04:02:00,59.2,56.3,29.65,SE,137,4.0,4.0,90,0.00,,,0.00,Wunderground v.1.15,2013-11-16 10:02:00,
2013-11-16 04:04:00,59.2,56.3,29.66,South,184,4.0,4.0,90,0.00,,,0.00,Wunderground v.1.15,2013-11-16 10:04:00,
2013-11-16 04:08:00,59.5,56.9,29.65,South,177,4.0,4.0,91,0.00,,,0.00,Wunderground v.1.15,2013-11-16 10:08:00,
2013-11-16 04:10:00,59.5,56.6,29.66,SE,141,4.0,5.0,90,0.00,,,0.00,Wunderground v.1.15,2013-11-16 10:10:00,
2013-11-16 04:14:00,59.7,56.8,29.66,SSW,206,5.0,8.0,90,0.00,,,0.00,Wunderground v.1.15,2013-11-16 10:14:00,
2013-11-16 04:16:00,59.9,57.3,29.65,South,186,5.0,8.0,91,0.00,,,0.00,Wunderground v.1.15,2013-11-16 10:16:00,
2013-11-16 04:20:00,60.1,57.2,29.65,SSE,155,5.0,5.0,90,0.00,,,0.00,Wunderground v.1.15,2013-11-16 10:20:00,
2013-11-16 04:22:00,60.2,57.3,29.65,SSW,197,5.0,8.0,90,0.00,,,0.00,Wunderground v.1.15,2013-11-16 10:22:00,
2013-11-16 04:24:00,60.4,57.5,29.65,SSE,164,5.0,8.0,90,0.00,,,0.00,Wunderground v.1.15,2013-11-16 10:24:00,
2013-11-16 04:26:00,60.4,57.5,29.65,South,184,4.0,10.0,90,0.00,,,0.00,Wunderground v.1.15,2013-11-16 10:26:00,
2013-11-16 04:32:00,60.8,57.5,29.65,South,180,5.0,7.0,89,0.00,,,0.00,Wunderground v.1.15,2013-11-16 10:32:00,
2013-11-16 04:34:00,60.9,57.6,29.65,South,184,5.0,7.0,89,0.00,,,0.00,Wunderground v.1.15,2013-11-16 10:34:00,
2013-11-16 04:36:00,61.0,57.7,29.65,South,173,6.0,11.0,89,0.00,,,0.00,Wunderground v.1.15,2013-11-16 10:36:00,
2013-11-16 04:38:00,61.1,57.8,29.65,SSE,161,6.0,11.0,89,0.00,,,0.00,Wunderground v.1.15,2013-11-16 10:38:00,
2013-11-16 04:40:00,61.1,57.8,29.65,SSE,161,6.0,6.0,89,0.00,,,0.00,Wunderground v.1.15,2013-11-16 10:40:00,
2013-11-16 04:42:00,61.2,57.9,29.65,South,188,6.0,6.0,89,0.00,,,0.00,Wunderground v.1.15,2013-11-16 10:42:00,
2013-11-16 04:46:00,61.3,57.7,29.64,SSW,206,6.0,12.0,88,0.00,,,0.00,Wunderground v.1.15,2013-11-16 10:46:00,
2013-11-16 04:50:00,61.4,57.8,29.64,South,177,6.0,6.0,88,0.00,,,0.00,Wunderground v.1.15,2013-11-16 10:50:00,
2013-11-16 04:54:00,61.4,57.8,29.65,SE,134,5.0,7.0,88,0.00,,,0.00,Wunderground v.1.15,2013-11-16 10:54:00,
2013-11-16 04:56:00,61.4,57.8,29.65,SSW,192,5.0,9.0,88,0.00,,,0.00,Wunderground v.1.15,2013-11-16 10:56:00,
2013-11-16 04:59:00,61.5,57.9,29.65,SSE,163,5.0,9.0,88,0.00,,,0.00,Wunderground v.1.15,2013-11-16 10:59:00,
2013-11-16 05:00:00,61.5,57.9,29.64,South,185,5.0,5.0,88,0.00,,,0.00,Wunderground v.1.15,2013-11-16 11:00:00,
2013-11-16 05:04:00,61.5,57.9,29.65,SSE,161,6.0,8.0,88,0.00,,,0.00,Wunderground v.1.15,2013-11-16 11:04:00,
2013-11-16 05:08:00,61.6,58.0,29.64,South,169,5.0,8.0,88,0.00,,,0.00,Wunderground v.1.15,2013-11-16 11:08:00,
2013-11-16 05:10:00,61.6,58.0,29.65,South,178,5.0,5.0,88,0.00,,,0.00,Wunderground v.1.15,2013-11-16 11:10:00,
2013-11-16 05:16:00,61.6,58.0,29.64,SSE,167,5.0,14.0,88,0.00,,,0.00,Wunderground v.1.15,2013-11-16 11:16:00,
2013-11-16 05:18:00,61.6,58.0,29.64,South,176,5.0,14.0,88,0.00,,,0.00,Wunderground v.1.15,2013-11-16 11:18:00,
2013-11-16 05:22:00,61.6,58.0,29.64,SSE,155,5.0,6.0,88,0.00,,,0.00,Wunderground v.1.15,2013-11-16 11:22:00,
2013-11-16 05:24:00,61.6,58.0,29.64,South,169,4.0,6.0,88,0.00,,,0.00,Wunderground v.1.15,2013-11-16 11:24:00,
2013-11-16 05:26:00,61.6,58.0,29.64,SSE,163,5.0,6.0,88,0.00,,,0.00,Wunderground v.1.15,2013-11-16 11:26:00,
2013-11-16 05:29:00,61.7,58.1,29.64,South,179,5.0,6.0,88,0.00,,,0.00,Wunderground v.1.15,2013-11-16 11:29:00,
2013-11-16 05:30:00,61.7,58.1,29.64,SSE,167,4.0,12.0,88,0.00,,,0.00,Wunderground v.1.15,2013-11-16 11:30:00,
2013-11-16 05:32:00,61.7,58.1,29.64,SE,144,5.0,12.0,88,0.00,,,0.00,Wunderground v.1.15,2013-11-16 11:32:00,
2013-11-16 05:34:00,61.7,58.1,29.63,South,186,5.0,12.0,88,0.00,,,0.00,Wunderground v.1.15,2013-11-16 11:34:00,
2013-11-16 05:36:00,61.7,58.1,29.63,South,180,5.0,12.0,88,0.00,,,0.00,Wunderground v.1.15,2013-11-16 11:36:00,
2013-11-16 05:38:00,61.8,58.2,29.64,South,184,5.0,12.0,88,0.00,,,0.00,Wunderground v.1.15,2013-11-16 11:38:00,
2013-11-16 05:40:00,61.8,58.2,29.64,South,188,5.0,10.0,88,0.00,,,0.00,Wunderground v.1.15,2013-11-16 11:40:00,
2013-11-16 05:44:00,61.8,58.2,29.64,SSE,167,5.0,12.0,88,0.00,,,0.00,Wunderground v.1.15,2013-11-16 11:44:00,
2013-11-16 05:46:00,61.8,58.2,29.64,SSE,166,4.0,12.0,88,0.00,,,0.00,Wunderground v.1.15,2013-11-16 11:46:00,
2013-11-16 05:52:00,61.8,58.2,29.63,SSE,163,4.0,4.0,88,0.00,,,0.00,Wunderground v.1.15,2013-11-16 11:52:00,
2013-11-16 05:54:00,61.8,58.2,29.63,SSE,168,5.0,5.0,88,0.00,,,0.00,Wunderground v.1.15,2013-11-16 11:54:00,
2013-11-16 05:56:00,61.8,58.2,29.62,SSE,165,5.0,12.0,88,0.00,,,0.00,Wunderground v.1.15,2013-11-16 11:56:00,
2013-11-16 06:00:00,61.8,58.2,29.62,South,177,5.0,6.0,88,0.00,,,0.00,Wunderground v.1.15,2013-11-16 12:00:00,
2013-11-16 06:02:00,61.8,58.2,29.63,South,178,5.0,10.0,88,0.00,,,0.00,Wunderground v.1.15,2013-11-16 12:02:00,
2013-11-16 06:04:00,61.8,58.2,29.63,South,182,5.0,10.0,88,0.00,,,0.00,Wunderground v.1.15,2013-11-16 12:04:00,
2013-11-16 06:08:00,61.8,58.2,29.62,SSE,159,5.0,10.0,88,0.00,,,0.00,Wunderground v.1.15,2013-11-16 12:08:00,
2013-11-16 06:12:00,61.9,58.3,29.63,South,173,5.0,12.0,88,0.00,,,0.00,Wunderground v.1.15,2013-11-16 12:12:00,
2013-11-16 06:14:00,61.9,58.3,29.63,SE,142,4.0,12.0,88,0.00,,,0.00,Wunderground v.1.15,2013-11-16 12:14:00,
2013-11-16 06:19:00,61.9,58.3,29.63,South,183,4.0,12.0,88,0.00,,,0.00,Wunderground v.1.15,2013-11-16 12:19:00,
2013-11-16 06:20:00,61.9,58.3,29.63,South,177,4.0,5.0,88,0.00,,,0.00,Wunderground v.1.15,2013-11-16 12:20:00,
2013-11-16 06:22:00,61.9,58.3,29.63,SSE,157,4.0,9.0,88,0.00,,,0.00,Wunderground v.1.15,2013-11-16 12:22:00,
2013-11-16 06:29:00,62.0,58.4,29.63,South,179,4.0,9.0,88,0.00,,,0.00,Wunderground v.1.15,2013-11-16 12:29:00,
2013-11-16 06:30:00,62.0,58.4,29.63,South,187,5.0,5.0,88,0.00,,,0.00,Wunderground v.1.15,2013-11-16 12:30:00,
2013-11-16 06:32:00,62.0,58.4,29.63,South,174,5.0,5.0,88,0.00,,,0.00,Wunderground v.1.15,2013-11-16 12:32:00,
2013-11-16 06:34:00,62.0,58.4,29.63,South,171,5.0,5.0,88,0.00,,,0.00,Wunderground v.1.15,2013-11-16 12:34:00,
2013-11-16 06:36:00,62.0,58.4,29.63,South,175,5.0,9.0,88,0.00,,,0.00,Wunderground v.1.15,2013-11-16 12:36:00,
2013-11-16 06:38:00,62.0,58.4,29.63,SSW,192,4.0,9.0,88,0.00,,,0.00,Wunderground v.1.15,2013-11-16 12:38:00,
2013-11-16 06:42:00,61.9,58.3,29.63,South,180,4.0,4.0,88,0.00,,,0.00,Wunderground v.1.15,2013-11-16 12:42:00,
2013-11-16 06:46:00,61.9,58.3,29.63,South,178,4.0,5.0,88,0.00,,,0.00,Wunderground v.1.15,2013-11-16 12:46:00,
2013-11-16 06:49:00,61.9,58.3,29.63,SSE,158,4.0,7.0,88,0.00,,,0.00,Wunderground v.1.15,2013-11-16 12:49:00,
2013-11-16 06:50:00,61.8,58.2,29.63,SSE,166,4.0,4.0,88,0.00,,,0.00,Wunderground v.1.15,2013-11-16 12:50:00,
2013-11-16 06:52:00,61.8,58.2,29.63,South,175,4.0,8.0,88,0.00,,,0.00,Wunderground v.1.15,2013-11-16 12:52:00,
2013-11-16 06:56:00,61.8,58.2,29.63,South,171,4.0,8.0,88,0.00,,,0.00,Wunderground v.1.15,2013-11-16 12:56:00,
2013-11-16 06:59:00,61.8,58.2,29.63,South,183,4.0,8.0,88,0.00,,,0.00,Wunderground v.1.15,2013-11-16 12:59:00,
2013-11-16 07:04:00,61.9,58.3,29.63,South,187,5.0,11.0,88,0.00,,,0.00,Wunderground v.1.15,2013-11-16 13:04:00,
2013-11-16 07:06:00,61.9,58.3,29.63,SSW,192,5.0,11.0,88,0.00,,,0.00,Wunderground v.1.15,2013-11-16 13:06:00,
2013-11-16 07:09:00,61.9,58.3,29.63,SSE,164,5.0,11.0,88,0.00,,,0.00,Wunderground v.1.15,2013-11-16 13:09:00,
2013-11-16 07:12:00,62.0,58.4,29.63,SSW,197,5.0,5.0,88,0.00,,,0.00,Wunderground v.1.15,2013-11-16 13:12:00,
2013-11-16 07:14:00,62.0,58.4,29.63,SSE,167,5.0,5.0,88,0.00,,,0.00,Wunderground v.1.15,2013-11-16 13:14:00,
2013-11-16 07:19:00,62.1,58.5,29.63,South,185,4.0,9.0,88,0.00,,,0.00,Wunderground v.1.15,2013-11-16 13:19:00,
2013-11-16 07:24:00,62.2,58.6,29.63,South,184,4.0,7.0,88,0.00,,,0.00,Wunderground v.1.15,2013-11-16 13:24:00,
2013-11-16 07:26:00,62.3,58.7,29.64,SW,220,5.0,7.0,88,0.00,,,0.00,Wunderground v.1.15,2013-11-16 13:26:00,
2013-11-16 07:32:00,62.1,58.5,29.63,SSW,200,5.0,5.0,88,0.28,,,0.03,Wunderground v.1.15,2013-11-16 13:32:00,
2013-11-16 07:34:00,62.0,58.4,29.64,South,186,5.0,16.0,88,0.16,,,0.03,Wunderground v.1.15,2013-11-16 13:34:00,
2013-11-16 07:39:00,61.9,58.6,29.64,SE,141,5.0,16.0,89,1.11,,,0.07,Wunderground v.1.15,2013-11-16 13:39:00,
2013-11-16 07:40:00,61.8,58.5,29.64,South,176,5.0,9.0,89,0.35,,,0.07,Wunderground v.1.15,2013-11-16 13:40:00,
2013-11-16 07:42:00,61.8,58.5,29.64,South,169,5.0,9.0,89,0.31,,,0.08,Wunderground v.1.15,2013-11-16 13:42:00,
2013-11-16 07:44:00,61.7,58.7,29.65,South,171,5.0,9.0,90,0.55,,,0.10,Wunderground v.1.15,2013-11-16 13:44:00,
2013-11-16 07:46:00,61.6,58.6,29.65,South,169,5.0,9.0,90,0.22,,,0.11,Wunderground v.1.15,2013-11-16 13:46:00,
2013-11-16 07:50:00,61.5,58.5,29.65,SSE,161,4.0,4.0,90,0.14,,,0.11,Wunderground v.1.15,2013-11-16 13:50:00,
2013-11-16 07:52:00,61.5,58.5,29.65,SSE,168,4.0,5.0,90,0.10,,,0.11,Wunderground v.1.15,2013-11-16 13:52:00,
2013-11-16 07:56:00,61.5,58.8,29.65,South,187,4.0,5.0,91,0.06,,,0.11,Wunderground v.1.15,2013-11-16 13:56:00,
2013-11-16 07:58:00,61.5,58.8,29.65,South,183,5.0,5.0,91,0.05,,,0.11,Wunderground v.1.15,2013-11-16 13:58:00,
2013-11-16 08:00:00,61.5,58.8,29.66,SSE,167,4.0,4.0,91,0.04,,,0.11,Wunderground v.1.15,2013-11-16 14:00:00,
2013-11-16 08:02:00,61.5,58.8,29.66,SSE,150,4.0,7.0,91,0.04,,,0.11,Wunderground v.1.15,2013-11-16 14:02:00,
2013-11-16 08:04:00,61.6,58.9,29.65,South,172,4.0,7.0,91,0.00,,,0.12,Wunderground v.1.15,2013-11-16 14:04:00,
2013-11-16 08:06:00,61.6,58.9,29.66,South,184,4.0,7.0,91,0.00,,,0.12,Wunderground v.1.15,2013-11-16 14:06:00,
2013-11-16 08:10:00,61.6,58.6,29.66,South,188,5.0,5.0,90,0.00,,,0.12,Wunderground v.1.15,2013-11-16 14:10:00,
2013-11-16 08:12:00,61.6,58.6,29.66,SSE,164,4.0,5.0,90,0.00,,,0.12,Wunderground v.1.15,2013-11-16 14:12:00,
2013-11-16 08:16:00,61.6,58.9,29.66,SSE,159,3.0,5.0,91,0.05,,,0.13,Wunderground v.1.15,2013-11-16 14:16:00,
2013-11-16 08:20:00,61.6,58.6,29.66,South,175,3.0,7.0,90,0.05,,,0.13,Wunderground v.1.15,2013-11-16 14:20:00,
2013-11-16 08:22:00,61.7,58.7,29.66,SSE,153,3.0,10.0,90,0.05,,,0.13,Wunderground v.1.15,2013-11-16 14:22:00,
2013-11-16 08:26:00,61.8,58.8,29.65,South,173,4.0,10.0,90,0.05,,,0.13,Wunderground v.1.15,2013-11-16 14:26:00,
2013-11-16 08:29:00,61.8,58.8,29.65,South,181,4.0,10.0,90,0.04,,,0.13,Wunderground v.1.15,2013-11-16 14:29:00,
2013-11-16 08:30:00,61.8,58.8,29.65,South,186,4.0,6.0,90,0.04,,,0.13,Wunderground v.1.15,2013-11-16 14:30:00,
2013-11-16 08:32:00,61.8,58.8,29.65,South,172,4.0,6.0,90,0.04,,,0.14,Wunderground v.1.15,2013-11-16 14:32:00,
2013-11-16 08:36:00,61.9,58.9,29.65,South,190,5.0,6.0,90,0.04,,,0.14,Wunderground v.1.15,2013-11-16 14:36:00,
2013-11-16 08:38:00,61.9,58.9,29.64,SSE,159,5.0,6.0,90,0.04,,,0.14,Wunderground v.1.15,2013-11-16 14:38:00,
2013-11-16 08:42:00,61.9,58.9,29.65,South,190,5.0,9.0,90,0.04,,,0.14,Wunderground v.1.15,2013-11-16 14:42:00,
2013-11-16 08:44:00,61.8,58.8,29.64,South,182,4.0,9.0,90,0.04,,,0.14,Wunderground v.1.15,2013-11-16 14:44:00,
2013-11-16 08:46:00,61.8,58.8,29.65,South,183,4.0,9.0,90,0.04,,,0.14,Wunderground v.1.15,2013-11-16 14:46:00,
2013-11-16 08:50:00,61.8,58.8,29.65,SSW,202,4.0,7.0,90,0.00,,,0.14,Wunderground v.1.15,2013-11-16 14:50:00,
2013-11-16 08:56:00,62.0,59.0,29.65,SSE,164,4.0,9.0,90,0.00,,,0.14,Wunderground v.1.15,2013-11-16 14:56:00,
2013-11-16 08:59:00,62.0,59.0,29.65,SSE,157,5.0,9.0,90,0.00,,,0.14,Wunderground v.1.15,2013-11-16 14:59:00,
2013-11-16 09:00:00,62.0,59.0,29.66,SSE,165,5.0,5.0,90,0.00,,,0.14,Wunderground v.1.15,2013-11-16 15:00:00,
2013-11-16 09:02:00,62.1,59.1,29.66,SSE,160,5.0,5.0,90,0.00,,,0.14,Wunderground v.1.15,2013-11-16 15:02:00,
2013-11-16 09:06:00,62.2,58.9,29.66,SSE,149,5.0,5.0,89,0.00,,,0.14,Wunderground v.1.15,2013-11-16 15:06:00,
2013-11-16 09:08:00,62.4,59.1,29.66,SSE,163,5.0,5.0,89,0.00,,,0.14,Wunderground v.1.15,2013-11-16 15:08:00,
2013-11-16 09:12:00,62.4,59.1,29.66,SSW,194,4.0,5.0,89,0.00,,,0.14,Wunderground v.1.15,2013-11-16 15:12:00,
2013-11-16 09:19:00,62.6,59.0,29.65,South,178,4.0,8.0,88,0.00,,,0.14,Wunderground v.1.15,2013-11-16 15:19:00,
2013-11-16 09:20:00,62.7,59.1,29.65,South,176,4.0,4.0,88,0.00,,,0.14,Wunderground v.1.15,2013-11-16 15:20:00,
2013-11-16 09:22:00,62.7,59.1,29.65,South,169,4.0,4.0,88,0.00,,,0.14,Wunderground v.1.15,2013-11-16 15:22:00,
2013-11-16 09:26:00,62.7,59.1,29.64,SSE,165,3.0,15.0,88,0.00,,,0.14,Wunderground v.1.15,2013-11-16 15:26:00,
2013-11-16 09:28:00,62.9,59.3,29.65,South,179,4.0,15.0,88,0.00,,,0.14,Wunderground v.1.15,2013-11-16 15:28:00,
2013-11-16 09:30:00,62.9,59.3,29.65,SSE,165,5.0,5.0,88,0.00,,,0.14,Wunderground v.1.15,2013-11-16 15:30:00,
2013-11-16 09:32:00,63.0,59.4,29.65,SSW,196,5.0,11.0,88,0.00,,,0.14,Wunderground v.1.15,2013-11-16 15:32:00,
2013-11-16 09:34:00,63.0,59.4,29.64,South,178,6.0,11.0,88,0.00,,,0.15,Wunderground v.1.15,2013-11-16 15:34:00,
2013-11-16 09:36:00,63.0,59.4,29.64,South,184,6.0,11.0,88,0.00,,,0.15,Wunderground v.1.15,2013-11-16 15:36:00,
2013-11-16 09:38:00,62.9,59.3,29.64,SSE,161,6.0,11.0,88,0.00,,,0.15,Wunderground v.1.15,2013-11-16 15:38:00,
2013-11-16 09:44:00,62.9,59.3,29.63,South,173,6.0,6.0,88,0.00,,,0.15,Wunderground v.1.15,2013-11-16 15:44:00,
2013-11-16 09:46:00,62.9,59.3,29.63,SSE,159,6.0,9.0,88,0.00,,,0.15,Wunderground v.1.15,2013-11-16 15:46:00,
2013-11-16 09:48:00,63.0,59.4,29.63,South,175,6.0,9.0,88,0.00,,,0.15,Wunderground v.1.15,2013-11-16 15:48:00,
2013-11-16 09:54:00,63.1,59.2,29.62,SE,136,7.0,12.0,87,0.00,,,0.15,Wunderground v.1.15,2013-11-16 15:54:00,
2013-11-16 09:56:00,63.1,59.2,29.62,SSE,147,7.0,17.0,87,0.00,,,0.15,Wunderground v.1.15,2013-11-16 15:56:00,
2013-11-16 10:02:00,63.3,59.4,29.63,South,180,7.0,22.0,87,0.00,,,0.15,Wunderground v.1.15,2013-11-16 16:02:00,
2013-11-16 10:04:00,63.4,59.5,29.62,SSW,209,7.0,22.0,87,0.00,,,0.15,Wunderground v.1.15,2013-11-16 16:04:00,
2013-11-16 10:06:00,63.6,59.3,29.62,South,171,8.0,22.0,86,0.00,,,0.15,Wunderground v.1.15,2013-11-16 16:06:00,
2013-11-16 10:09:00,63.7,59.4,29.62,South,189,8.0,22.0,86,0.00,,,0.15,Wunderground v.1.15,2013-11-16 16:09:00,
2013-11-16 10:10:00,63.8,59.5,29.62,SSW,194,9.0,10.0,86,0.00,,,0.15,Wunderground v.1.15,2013-11-16 16:10:00,
2013-11-16 10:12:00,63.9,59.3,29.62,SSE,167,9.0,12.0,85,0.00,,,0.15,Wunderground v.1.15,2013-11-16 16:12:00,
2013-11-16 10:14:00,64.1,59.5,29.61,SW,222,9.0,12.0,85,0.00,,,0.15,Wunderground v.1.15,2013-11-16 16:14:00,
2013-11-16 10:18:00,64.3,59.7,29.61,South,184,8.0,12.0,85,0.00,,,0.15,Wunderground v.1.15,2013-11-16 16:18:00,
2013-11-16 10:20:00,64.3,59.4,29.61,SSE,148,7.0,12.0,84,0.00,,,0.15,Wunderground v.1.15,2013-11-16 16:20:00,
2013-11-16 10:22:00,64.4,59.5,29.61,SSE,160,6.0,12.0,84,0.00,,,0.15,Wunderground v.1.15,2013-11-16 16:22:00,
2013-11-16 10:26:00,64.6,59.7,29.60,ESE,117,6.0,15.0,84,0.00,,,0.15,Wunderground v.1.15,2013-11-16 16:26:00,
2013-11-16 10:29:00,64.7,59.8,29.60,South,171,7.0,15.0,84,0.00,,,0.15,Wunderground v.1.15,2013-11-16 16:29:00,
2013-11-16 10:30:00,64.7,59.4,29.60,South,186,7.0,13.0,83,0.00,,,0.15,Wunderground v.1.15,2013-11-16 16:30:00,
2013-11-16 10:34:00,64.8,59.5,29.61,South,187,8.0,13.0,83,0.00,,,0.15,Wunderground v.1.15,2013-11-16 16:34:00,
2013-11-16 10:36:00,64.8,59.5,29.61,South,178,7.0,14.0,83,0.00,,,0.15,Wunderground v.1.15,2013-11-16 16:36:00,
2013-11-16 10:39:00,64.9,59.6,29.61,South,175,7.0,14.0,83,0.00,,,0.15,Wunderground v.1.15,2013-11-16 16:39:00,
2013-11-16 10:40:00,64.8,59.2,29.61,South,190,7.0,12.0,82,0.00,,,0.15,Wunderground v.1.15,2013-11-16 16:40:00,
2013-11-16 10:44:00,64.9,59.6,29.61,SSW,207,6.0,12.0,83,0.00,,,0.15,Wunderground v.1.15,2013-11-16 16:44:00,
2013-11-16 10:46:00,64.9,59.6,29.61,South,173,7.0,12.0,83,0.00,,,0.15,Wunderground v.1.15,2013-11-16 16:46:00,
2013-11-16 10:49:00,64.9,59.3,29.60,SSE,159,8.0,12.0,82,0.00,,,0.15,Wunderground v.1.15,2013-11-16 16:49:00,
2013-11-16 10:50:00,64.9,59.3,29.60,SSW,196,7.0,7.0,82,0.00,,,0.15,Wunderground v.1.15,2013-11-16 16:50:00,
2013-11-16 10:52:00,64.9,59.3,29.60,South,184,7.0,7.0,82,0.00,,,0.15,Wunderground v.1.15,2013-11-16 16:52:00,
2013-11-16 10:54:00,64.8,59.5,29.60,South,169,7.0,7.0,83,0.00,,,0.15,Wunderground v.1.15,2013-11-16 16:54:00,
2013-11-16 10:59:00,64.8,59.5,29.59,South,180,5.0,15.0,83,0.00,,,0.15,Wunderground v.1.15,2013-11-16 16:59:00,
2013-11-16 11:00:00,64.8,59.2,29.59,East,81,6.0,6.0,82,0.00,,,0.15,Wunderground v.1.15,2013-11-16 17:00:00,
2013-11-16 11:02:00,64.7,59.4,29.59,SSW,192,6.0,6.0,83,0.00,,,0.15,Wunderground v.1.15,2013-11-16 17:02:00,
2013-11-16 11:04:00,64.7,59.4,29.59,South,175,6.0,6.0,83,0.00,,,0.15,Wunderground v.1.15,2013-11-16 17:04:00,
2013-11-16 11:08:00,64.8,59.5,29.59,South,181,7.0,16.0,83,0.00,,,0.15,Wunderground v.1.15,2013-11-16 17:08:00,
2013-11-16 11:10:00,64.8,59.5,29.59,South,177,7.0,7.0,83,0.00,,,0.15,Wunderground v.1.15,2013-11-16 17:10:00,
2013-11-16 11:14:00,65.0,59.7,29.59,SSE,164,7.0,7.0,83,0.00,,,0.15,Wunderground v.1.15,2013-11-16 17:14:00,
2013-11-16 11:19:00,65.2,59.9,29.59,South,182,5.0,7.0,83,0.00,,,0.15,Wunderground v.1.15,2013-11-16 17:19:00,
2013-11-16 11:20:00,65.3,60.0,29.59,SSE,153,5.0,6.0,83,0.00,,,0.15,Wunderground v.1.15,2013-11-16 17:20:00,
2013-11-16 11:24:00,65.4,59.8,29.59,South,173,5.0,6.0,82,0.00,,,0.15,Wunderground v.1.15,2013-11-16 17:24:00,
2013-11-16 11:26:00,65.5,59.9,29.59,South,177,5.0,7.0,82,0.00,,,0.15,Wunderground v.1.15,2013-11-16 17:26:00,
2013-11-16 11:29:00,65.6,60.0,29.59,South,174,6.0,7.0,82,0.00,,,0.15,Wunderground v.1.15,2013-11-16 17:29:00,
2013-11-16 11:30:00,65.7,60.1,29.59,SE,132,6.0,6.0,82,0.00,,,0.15,Wunderground v.1.15,2013-11-16 17:30:00,
2013-11-16 11:32:00,65.7,60.1,29.58,SSE,165,6.0,6.0,82,0.00,,,0.15,Wunderground v.1.15,2013-11-16 17:32:00,
2013-11-16 11:36:00,65.8,59.8,29.59,SSE,154,6.0,6.0,81,0.00,,,0.15,Wunderground v.1.15,2013-11-16 17:36:00,
2013-11-16 11:39:00,66.0,60.0,29.59,WNW,286,5.0,6.0,81,0.00,,,0.15,Wunderground v.1.15,2013-11-16 17:39:00,
2013-11-16 11:40:00,66.0,60.0,29.59,West,273,5.0,7.0,81,0.00,,,0.15,Wunderground v.1.15,2013-11-16 17:40:00,
2013-11-16 11:42:00,66.1,59.7,29.58,South,176,5.0,7.0,80,0.00,,,0.15,Wunderground v.1.15,2013-11-16 17:42:00,
2013-11-16 11:46:00,66.5,60.1,29.57,South,191,5.0,7.0,80,0.00,,,0.15,Wunderground v.1.15,2013-11-16 17:46:00,
2013-11-16 11:49:00,66.7,60.3,29.57,SSE,160,5.0,7.0,80,0.00,,,0.15,Wunderground v.1.15,2013-11-16 17:49:00,
2013-11-16 11:50:00,66.8,60.1,29.57,South,190,5.0,5.0,79,0.00,,,0.15,Wunderground v.1.15,2013-11-16 17:50:00,
2013-11-16 11:52:00,66.9,60.2,29.57,SSE,165,5.0,5.0,79,0.00,,,0.15,Wunderground v.1.15,2013-11-16 17:52:00,
2013-11-16 11:54:00,67.1,60.4,29.57,SSW,198,5.0,5.0,79,0.00,,,0.15,Wunderground v.1.15,2013-11-16 17:54:00,
2013-11-16 11:56:00,67.3,60.2,29.57,SSE,165,5.0,5.0,78,0.00,,,0.15,Wunderground v.1.15,2013-11-16 17:56:00,
2013-11-16 11:59:00,67.6,60.5,29.56,SSW,199,5.0,9.0,78,0.00,,,0.15,Wunderground v.1.15,2013-11-16 17:59:00,
2013-11-16 12:00:00,67.7,60.6,29.56,SSE,163,5.0,18.0,78,0.00,,,0.15,Wunderground v.1.15,2013-11-16 18:00:00,
2013-11-16 12:04:00,68.1,60.2,29.56,SSW,202,6.0,18.0,76,0.00,,,0.15,Wunderground v.1.15,2013-11-16 18:04:00,
2013-11-16 12:06:00,68.3,60.4,29.56,SSW,200,6.0,18.0,76,0.00,,,0.15,Wunderground v.1.15,2013-11-16 18:06:00,
2013-11-16 12:09:00,68.6,60.7,29.55,South,182,6.0,18.0,76,0.00,,,0.15,Wunderground v.1.15,2013-11-16 18:09:00,
2013-11-16 12:10:00,68.8,60.6,29.55,SSW,194,7.0,7.0,75,0.00,,,0.15,Wunderground v.1.15,2013-11-16 18:10:00,
2013-11-16 12:12:00,69.0,60.7,29.55,South,178,6.0,7.0,75,0.00,,,0.15,Wunderground v.1.15,2013-11-16 18:12:00,
2013-11-16 12:14:00,69.3,60.7,29.55,South,188,6.0,7.0,74,0.00,,,0.15,Wunderground v.1.15,2013-11-16 18:14:00,
2013-11-16 12:16:00,69.4,60.4,29.54,SSE,159,6.0,7.0,73,0.00,,,0.15,Wunderground v.1.15,2013-11-16 18:16:00,
2013-11-16 12:19:00,69.4,60.4,29.54,SSW,196,7.0,7.0,73,0.00,,,0.15,Wunderground v.1.15,2013-11-16 18:19:00,
2013-11-16 12:20:00,69.4,60.0,29.55,South,183,6.0,6.0,72,0.00,,,0.15,Wunderground v.1.15,2013-11-16 18:20:00,
2013-11-16 12:22:00,69.5,60.1,29.55,SW,219,7.0,7.0,72,0.00,,,0.15,Wunderground v.1.15,2013-11-16 18:22:00,
2013-11-16 12:26:00,69.6,60.2,29.54,South,169,6.0,7.0,72,0.00,,,0.15,Wunderground v.1.15,2013-11-16 18:26:00,
2013-11-16 12:29:00,69.6,60.2,29.55,South,180,7.0,7.0,72,0.00,,,0.15,Wunderground v.1.15,2013-11-16 18:29:00,
2013-11-16 12:32:00,69.6,59.8,29.55,SSW,205,7.0,7.0,71,0.00,,,0.15,Wunderground v.1.15,2013-11-16 18:32:00,
2013-11-16 12:34:00,69.6,60.2,29.55,South,174,6.0,10.0,72,0.00,,,0.15,Wunderground v.1.15,2013-11-16 18:34:00,
2013-11-16 12:39:00,69.8,60.0,29.54,South,190,6.0,10.0,71,0.00,,,0.15,Wunderground v.1.15,2013-11-16 18:39:00,
2013-11-16 12:40:00,69.9,59.7,29.54,South,172,7.0,7.0,70,0.00,,,0.15,Wunderground v.1.15,2013-11-16 18:40:00,
2013-11-16 12:42:00,70.1,60.3,29.54,SSW,193,6.0,7.0,71,0.00,,,0.15,Wunderground v.1.15,2013-11-16 18:42:00,
2013-11-16 12:44:00,70.3,60.4,29.54,SSE,167,5.0,7.0,71,0.00,,,0.15,Wunderground v.1.15,2013-11-16 18:44:00,
2013-11-16 12:46:00,70.5,60.2,29.54,South,188,5.0,7.0,70,0.00,,,0.15,Wunderground v.1.15,2013-11-16 18:46:00,
2013-11-16 12:49:00,70.7,60.0,29.53,SSE,159,4.0,7.0,69,0.00,,,0.15,Wunderground v.1.15,2013-11-16 18:49:00,
2013-11-16 12:52:00,70.9,60.2,29.53,South,181,5.0,5.0,69,0.00,,,0.15,Wunderground v.1.15,2013-11-16 18:52:00,
2013-11-16 12:54:00,71.1,60.4,29.53,South,182,5.0,5.0,69,0.00,,,0.15,Wunderground v.1.15,2013-11-16 18:54:00,
2013-11-16 12:59:00,71.7,60.6,29.53,South,171,5.0,5.0,68,0.00,,,0.15,Wunderground v.1.15,2013-11-16 18:59:00,
2013-11-16 13:00:00,71.9,60.8,29.53,South,190,4.0,6.0,68,0.00,,,0.15,Wunderground v.1.15,2013-11-16 19:00:00,
2013-11-16 13:02:00,72.2,60.6,29.53,SSE,163,4.0,6.0,67,0.00,,,0.15,Wunderground v.1.15,2013-11-16 19:02:00,
2013-11-16 13:04:00,72.4,60.4,29.53,SSE,165,4.0,6.0,66,0.00,,,0.15,Wunderground v.1.15,2013-11-16 19:04:00,
2013-11-16 13:08:00,72.2,60.2,29.52,South,180,4.0,6.0,66,0.00,,,0.15,Wunderground v.1.15,2013-11-16 19:08:00,
2013-11-16 13:10:00,72.2,60.2,29.52,SE,130,5.0,11.0,66,0.00,,,0.15,Wunderground v.1.15,2013-11-16 19:10:00,
2013-11-16 13:12:00,72.1,60.1,29.52,SSE,168,6.0,11.0,66,0.00,,,0.15,Wunderground v.1.15,2013-11-16 19:12:00,
2013-11-16 13:14:00,72.1,60.1,29.51,SSE,168,6.0,11.0,66,0.00,,,0.15,Wunderground v.1.15,2013-11-16 19:14:00,
2013-11-16 13:16:00,72.2,59.8,29.51,South,187,6.0,11.0,65,0.00,,,0.15,Wunderground v.1.15,2013-11-16 19:16:00,
2013-11-16 13:19:00,72.3,59.9,29.51,SSE,153,6.0,11.0,65,0.00,,,0.15,Wunderground v.1.15,2013-11-16 19:19:00,
2013-11-16 13:24:00,72.5,60.1,29.51,South,187,6.0,9.0,65,0.00,,,0.15,Wunderground v.1.15,2013-11-16 19:24:00,
2013-11-16 13:26:00,72.5,60.1,29.51,SE,145,6.0,9.0,65,0.00,,,0.15,Wunderground v.1.15,2013-11-16 19:26:00,
2013-11-16 13:30:00,72.6,60.2,29.51,South,187,6.0,10.0,65,0.00,,,0.15,Wunderground v.1.15,2013-11-16 19:30:00,
2013-11-16 13:32:00,72.6,60.2,29.52,South,186,6.0,10.0,65,0.00,,,0.15,Wunderground v.1.15,2013-11-16 19:32:00,
2013-11-16 13:36:00,72.9,60.4,29.51,SSE,159,5.0,13.0,65,0.00,,,0.15,Wunderground v.1.15,2013-11-16 19:36:00,
2013-11-16 13:40:00,73.0,60.1,29.51,South,181,4.0,11.0,64,0.00,,,0.15,Wunderground v.1.15,2013-11-16 19:40:00,
2013-11-16 13:42:00,73.0,60.1,29.50,South,183,5.0,11.0,64,0.00,,,0.15,Wunderground v.1.15,2013-11-16 19:42:00,
2013-11-16 13:49:00,73.0,59.7,29.51,SSE,164,6.0,11.0,63,0.00,,,0.15,Wunderground v.1.15,2013-11-16 19:49:00,
2013-11-16 13:50:00,73.0,59.7,29.51,SSE,167,6.0,19.0,63,0.00,,,0.15,Wunderground v.1.15,2013-11-16 19:50:00,
2013-11-16 13:56:00,73.1,59.8,29.51,South,185,6.0,19.0,63,0.00,,,0.15,Wunderground v.1.15,2013-11-16 19:56:00,
2013-11-16 13:59:00,72.9,59.6,29.51,SSW,194,6.0,19.0,63,0.00,,,0.15,Wunderground v.1.15,2013-11-16 19:59:00,
2013-11-16 14:02:00,72.8,59.5,29.50,South,170,6.0,6.0,63,0.00,,,0.15,Wunderground v.1.15,2013-11-16 20:02:00,
2013-11-16 14:04:00,72.7,59.4,29.50,South,175,6.0,7.0,63,0.00,,,0.15,Wunderground v.1.15,2013-11-16 20:04:00,
2013-11-16 14:06:00,72.6,59.3,29.50,SSW,201,6.0,7.0,63,0.00,,,0.15,Wunderground v.1.15,2013-11-16 20:06:00,
2013-11-16 14:09:00,72.6,59.3,29.50,South,176,6.0,11.0,63,0.00,,,0.15,Wunderground v.1.15,2013-11-16 20:09:00,
2013-11-16 14:10:00,72.6,59.7,29.49,South,186,7.0,7.0,64,0.00,,,0.15,Wunderground v.1.15,2013-11-16 20:10:00,
2013-11-16 14:12:00,72.6,59.7,29.49,SSW,193,7.0,7.0,64,0.00,,,0.15,Wunderground v.1.15,2013-11-16 20:12:00,
2013-11-16 14:14:00,72.7,59.8,29.50,SSE,161,7.0,7.0,64,0.00,,,0.15,Wunderground v.1.15,2013-11-16 20:14:00,
2013-11-16 14:18:00,72.7,59.8,29.49,SSE,167,7.0,7.0,64,0.00,,,0.15,Wunderground v.1.15,2013-11-16 20:18:00,
2013-11-16 14:20:00,72.7,59.8,29.50,SSE,151,6.0,7.0,64,0.00,,,0.15,Wunderground v.1.15,2013-11-16 20:20:00,
2013-11-16 14:22:00,72.7,59.8,29.50,SSE,160,5.0,7.0,64,0.00,,,0.15,Wunderground v.1.15,2013-11-16 20:22:00,
2013-11-16 14:26:00,72.8,59.9,29.49,SSW,197,5.0,7.0,64,0.00,,,0.15,Wunderground v.1.15,2013-11-16 20:26:00,
2013-11-16 14:29:00,72.8,59.9,29.49,WSW,251,5.0,7.0,64,0.00,,,0.15,Wunderground v.1.15,2013-11-16 20:29:00,
2013-11-16 14:32:00,72.6,59.7,29.49,SSE,157,5.0,6.0,64,0.00,,,0.15,Wunderground v.1.15,2013-11-16 20:32:00,
2013-11-16 14:36:00,72.4,60.0,29.49,South,183,6.0,6.0,65,0.00,,,0.15,Wunderground v.1.15,2013-11-16 20:36:00,
2013-11-16 14:38:00,72.4,60.0,29.49,SSE,165,6.0,6.0,65,0.00,,,0.15,Wunderground v.1.15,2013-11-16 20:38:00,
2013-11-16 14:42:00,72.3,59.9,29.49,South,185,6.0,6.0,65,0.00,,,0.15,Wunderground v.1.15,2013-11-16 20:42:00,
2013-11-16 14:44:00,72.2,59.8,29.49,SSW,192,6.0,10.0,65,0.00,,,0.15,Wunderground v.1.15,2013-11-16 20:44:00,
2013-11-16 14:49:00,72.1,59.7,29.48,SSE,168,7.0,10.0,65,0.00,,,0.15,Wunderground v.1.15,2013-11-16 20:49:00,
2013-11-16 14:52:00,72.3,60.3,29.48,SSW,197,6.0,6.0,66,0.00,,,0.15,Wunderground v.1.15,2013-11-16 20:52:00,
2013-11-16 14:56:00,72.3,59.9,29.48,South,173,6.0,7.0,65,0.00,,,0.15,Wunderground v.1.15,2013-11-16 20:56:00,
2013-11-16 14:59:00,72.3,59.9,29.48,SSE,162,5.0,7.0,65,0.00,,,0.15,Wunderground v.1.15,2013-11-16 20:59:00,
2013-11-16 15:00:00,72.3,59.9,29.48,SSE,163,5.0,5.0,65,0.00,,,0.15,Wunderground v.1.15,2013-11-16 21:00:00,
2013-11-16 15:02:00,72.4,60.0,29.48,South,181,5.0,5.0,65,0.00,,,0.15,Wunderground v.1.15,2013-11-16 21:02:00,
2013-11-16 15:04:00,72.4,60.0,29.48,South,184,5.0,9.0,65,0.00,,,0.15,Wunderground v.1.15,2013-11-16 21:04:00,
2013-11-16 15:06:00,72.5,60.1,29.48,SSE,167,5.0,9.0,65,0.00,,,0.15,Wunderground v.1.15,2013-11-16 21:06:00,
2013-11-16 15:10:00,72.5,60.1,29.48,South,191,5.0,5.0,65,0.00,,,0.15,Wunderground v.1.15,2013-11-16 21:10:00,
2013-11-16 15:12:00,72.5,60.1,29.48,South,173,5.0,5.0,65,0.00,,,0.15,Wunderground v.1.15,2013-11-16 21:12:00,
2013-11-16 15:14:00,72.5,60.1,29.48,South,172,4.0,6.0,65,0.00,,,0.15,Wunderground v.1.15,2013-11-16 21:14:00,
2013-11-16 15:20:00,72.6,60.2,29.47,South,178,4.0,4.0,65,0.00,,,0.15,Wunderground v.1.15,2013-11-16 21:20:00,
2013-11-16 15:22:00,72.6,59.7,29.47,SSE,159,4.0,10.0,64,0.00,,,0.15,Wunderground v.1.15,2013-11-16 21:22:00,
2013-11-16 15:24:00,72.7,60.3,29.47,South,180,5.0,10.0,65,0.00,,,0.15,Wunderground v.1.15,2013-11-16 21:24:00,
2013-11-16 15:29:00,72.8,59.9,29.47,South,173,6.0,10.0,64,0.00,,,0.15,Wunderground v.1.15,2013-11-16 21:29:00,
2013-11-16 15:30:00,72.8,59.9,29.47,South,187,7.0,18.0,64,0.00,,,0.15,Wunderground v.1.15,2013-11-16 21:30:00,
2013-11-16 15:32:00,72.8,59.9,29.47,SSE,164,8.0,18.0,64,0.00,,,0.15,Wunderground v.1.15,2013-11-16 21:32:00,
2013-11-16 15:34:00,72.9,60.0,29.47,SSE,160,7.0,18.0,64,0.00,,,0.15,Wunderground v.1.15,2013-11-16 21:34:00,
2013-11-16 15:36:00,72.9,60.0,29.47,SW,219,7.0,18.0,64,0.00,,,0.15,Wunderground v.1.15,2013-11-16 21:36:00,
2013-11-16 15:39:00,72.8,59.9,29.47,South,173,6.0,18.0,64,0.00,,,0.15,Wunderground v.1.15,2013-11-16 21:39:00,
2013-11-16 15:42:00,72.8,59.9,29.47,South,183,5.0,10.0,64,0.00,,,0.15,Wunderground v.1.15,2013-11-16 21:42:00,
2013-11-16 15:44:00,72.8,59.9,29.48,South,178,6.0,10.0,64,0.00,,,0.15,Wunderground v.1.15,2013-11-16 21:44:00,
2013-11-16 15:49:00,72.7,59.8,29.48,South,178,5.0,10.0,64,0.00,,,0.15,Wunderground v.1.15,2013-11-16 21:49:00,
2013-11-16 15:50:00,72.8,59.9,29.47,SSE,165,5.0,5.0,64,0.00,,,0.15,Wunderground v.1.15,2013-11-16 21:50:00,
2013-11-16 15:54:00,72.7,59.8,29.47,South,182,4.0,12.0,64,0.00,,,0.15,Wunderground v.1.15,2013-11-16 21:54:00,
2013-11-16 15:56:00,72.8,59.9,29.47,SSW,192,4.0,12.0,64,0.00,,,0.15,Wunderground v.1.15,2013-11-16 21:56:00,
2013-11-16 16:00:00,72.9,60.0,29.47,SSE,163,5.0,5.0,64,0.00,,,0.15,Wunderground v.1.15,2013-11-16 22:00:00,
2013-11-16 16:02:00,72.9,60.0,29.47,South,186,5.0,5.0,64,0.00,,,0.15,Wunderground v.1.15,2013-11-16 22:02:00,
2013-11-16 16:09:00,72.9,60.4,29.47,SW,225,3.0,8.0,65,0.00,,,0.15,Wunderground v.1.15,2013-11-16 22:09:00,
2013-11-16 16:10:00,72.8,60.3,29.47,SSE,160,3.0,11.0,65,0.00,,,0.15,Wunderground v.1.15,2013-11-16 22:10:00,
2013-11-16 16:12:00,72.7,60.3,29.47,SSE,153,4.0,11.0,65,0.00,,,0.15,Wunderground v.1.15,2013-11-16 22:12:00,
2013-11-16 16:14:00,72.6,60.2,29.47,SSW,200,4.0,11.0,65,0.00,,,0.15,Wunderground v.1.15,2013-11-16 22:14:00,
2013-11-16 16:16:00,72.6,60.2,29.47,SSE,168,5.0,11.0,65,0.00,,,0.15,Wunderground v.1.15,2013-11-16 22:16:00,
2013-11-16 16:19:00,72.5,60.5,29.47,SSW,192,6.0,11.0,66,0.00,,,0.15,Wunderground v.1.15,2013-11-16 22:19:00,
2013-11-16 16:22:00,72.4,60.4,29.47,SSW,195,6.0,8.0,66,0.00,,,0.15,Wunderground v.1.15,2013-11-16 22:22:00,
2013-11-16 16:24:00,72.4,60.4,29.47,SSW,193,5.0,8.0,66,0.00,,,0.15,Wunderground v.1.15,2013-11-16 22:24:00,
2013-11-16 16:29:00,72.2,60.6,29.47,South,183,5.0,8.0,67,0.00,,,0.15,Wunderground v.1.15,2013-11-16 22:29:00,
2013-11-16 16:32:00,72.1,60.5,29.47,SSE,155,5.0,10.0,67,0.00,,,0.15,Wunderground v.1.15,2013-11-16 22:32:00,
2013-11-16 16:34:00,72.0,60.4,29.47,South,173,5.0,10.0,67,0.00,,,0.15,Wunderground v.1.15,2013-11-16 22:34:00,
2013-11-16 16:36:00,71.9,60.8,29.47,South,170,5.0,10.0,68,0.00,,,0.15,Wunderground v.1.15,2013-11-16 22:36:00,
2013-11-16 16:40:00,71.8,60.7,29.47,SW,235,5.0,5.0,68,0.00,,,0.15,Wunderground v.1.15,2013-11-16 22:40:00,
2013-11-16 16:42:00,71.8,60.7,29.47,South,178,5.0,5.0,68,0.00,,,0.15,Wunderground v.1.15,2013-11-16 22:42:00,
2013-11-16 16:48:00,71.5,60.8,29.47,SE,132,5.0,9.0,69,0.00,,,0.15,Wunderground v.1.15,2013-11-16 22:48:00,
2013-11-16 16:52:00,71.3,60.6,29.47,SSW,205,4.0,5.0,69,0.00,,,0.15,Wunderground v.1.15,2013-11-16 22:52:00,
2013-11-16 16:54:00,71.3,61.0,29.47,SSE,167,5.0,5.0,70,0.00,,,0.15,Wunderground v.1.15,2013-11-16 22:54:00,
2013-11-16 16:56:00,71.2,60.9,29.47,South,176,5.0,5.0,70,0.00,,,0.15,Wunderground v.1.15,2013-11-16 22:56:00,
2013-11-16 16:59:00,71.1,60.8,29.47,South,191,5.0,17.0,70,0.00,,,0.15,Wunderground v.1.15,2013-11-16 22:59:00,
2013-11-16 17:02:00,71.1,60.4,29.47,SSE,159,6.0,6.0,69,0.00,,,0.15,Wunderground v.1.15,2013-11-16 23:02:00,
2013-11-16 17:04:00,71.1,60.4,29.47,South,188,6.0,6.0,69,0.00,,,0.15,Wunderground v.1.15,2013-11-16 23:04:00,
2013-11-16 17:10:00,71.0,60.3,29.48,South,174,5.0,5.0,69,0.00,,,0.15,Wunderground v.1.15,2013-11-16 23:10:00,
2013-11-16 17:12:00,70.9,60.2,29.47,South,186,4.0,7.0,69,0.00,,,0.15,Wunderground v.1.15,2013-11-16 23:12:00,
2013-11-16 17:18:00,70.6,60.7,29.47,South,169,4.0,8.0,71,0.00,,,0.15,Wunderground v.1.15,2013-11-16 23:18:00,
2013-11-16 17:20:00,70.5,60.6,29.48,SSE,162,4.0,4.0,71,0.00,,,0.15,Wunderground v.1.15,2013-11-16 23:20:00,
2013-11-16 17:22:00,70.4,60.5,29.48,South,180,4.0,7.0,71,0.00,,,0.15,Wunderground v.1.15,2013-11-16 23:22:00,
2013-11-16 17:24:00,70.4,60.5,29.48,South,172,4.0,7.0,71,0.00,,,0.15,Wunderground v.1.15,2013-11-16 23:24:00,
2013-11-16 17:26:00,70.3,60.4,29.49,South,173,4.0,7.0,71,0.00,,,0.15,Wunderground v.1.15,2013-11-16 23:26:00,
2013-11-16 17:29:00,70.3,60.8,29.49,SSE,159,4.0,7.0,72,0.00,,,0.15,Wunderground v.1.15,2013-11-16 23:29:00,
2013-11-16 17:34:00,70.3,60.4,29.49,South,176,3.0,4.0,71,0.00,,,0.15,Wunderground v.1.15,2013-11-16 23:34:00,
2013-11-16 17:36:00,70.3,60.8,29.49,SSE,159,3.0,4.0,72,0.00,,,0.15,Wunderground v.1.15,2013-11-16 23:36:00,
2013-11-16 17:39:00,70.2,60.7,29.49,South,182,3.0,11.0,72,0.00,,,0.15,Wunderground v.1.15,2013-11-16 23:39:00,
2013-11-16 17:42:00,70.1,60.7,29.49,South,172,4.0,6.0,72,0.00,,,0.15,Wunderground v.1.15,2013-11-16 23:42:00,
2013-11-16 17:46:00,70.0,60.6,29.49,SSW,202,4.0,9.0,72,0.00,,,0.15,Wunderground v.1.15,2013-11-16 23:46:00,
2013-11-16 17:48:00,70.1,60.7,29.49,SSW,195,5.0,12.0,72,0.00,,,0.15,Wunderground v.1.15,2013-11-16 23:48:00,
2013-11-16 17:50:00,70.1,60.7,29.49,SSE,168,6.0,6.0,72,0.00,,,0.15,Wunderground v.1.15,2013-11-16 23:50:00,
2013-11-16 17:52:00,70.1,60.7,29.49,South,179,6.0,6.0,72,0.00,,,0.15,Wunderground v.1.15,2013-11-16 23:52:00,
2013-11-16 17:54:00,70.1,60.7,29.49,South,184,7.0,7.0,72,0.00,,,0.15,Wunderground v.1.15,2013-11-16 23:54:00,
2013-11-16 18:00:00,69.9,60.8,29.49,SE,130,5.0,5.0,73,0.00,,,0.15,Wunderground v.1.15,2013-11-17 00:00:00,
2013-11-16 18:02:00,69.8,60.8,29.49,SSW,210,5.0,5.0,73,0.00,,,0.15,Wunderground v.1.15,2013-11-17 00:02:00,
2013-11-16 18:04:00,69.7,60.7,29.49,South,182,5.0,5.0,73,0.00,,,0.15,Wunderground v.1.15,2013-11-17 00:04:00,
2013-11-16 18:06:00,69.7,60.7,29.48,SSW,195,6.0,6.0,73,0.00,,,0.15,Wunderground v.1.15,2013-11-17 00:06:00,
2013-11-16 18:14:00,69.4,60.8,29.49,SSW,205,6.0,6.0,74,0.00,,,0.15,Wunderground v.1.15,2013-11-17 00:14:00,
2013-11-16 18:16:00,69.4,60.8,29.49,South,176,6.0,8.0,74,0.00,,,0.15,Wunderground v.1.15,2013-11-17 00:16:00,
2013-11-16 18:19:00,69.3,60.7,29.49,South,179,6.0,8.0,74,0.00,,,0.15,Wunderground v.1.15,2013-11-17 00:19:00,
2013-11-16 18:20:00,69.2,60.6,29.49,SSW,192,5.0,7.0,74,0.00,,,0.15,Wunderground v.1.15,2013-11-17 00:20:00,
2013-11-16 18:26:00,69.2,60.6,29.49,South,188,6.0,7.0,74,0.00,,,0.15,Wunderground v.1.15,2013-11-17 00:26:00,
2013-11-16 18:30:00,69.2,60.6,29.49,South,174,7.0,7.0,74,0.00,,,0.15,Wunderground v.1.15,2013-11-17 00:30:00,
2013-11-16 18:32:00,69.1,60.5,29.49,South,169,7.0,12.0,74,0.00,,,0.15,Wunderground v.1.15,2013-11-17 00:32:00,
2013-11-16 18:36:00,69.1,60.5,29.49,SE,144,7.0,12.0,74,0.00,,,0.15,Wunderground v.1.15,2013-11-17 00:36:00,
2013-11-16 18:38:00,69.0,60.7,29.49,SE,140,7.0,12.0,75,0.00,,,0.15,Wunderground v.1.15,2013-11-17 00:38:00,
2013-11-16 18:44:00,68.8,60.6,29.50,SSE,163,6.0,7.0,75,0.00,,,0.15,Wunderground v.1.15,2013-11-17 00:44:00,
2013-11-16 18:46:00,68.7,60.5,29.49,South,173,6.0,7.0,75,0.00,,,0.15,Wunderground v.1.15,2013-11-17 00:46:00,
2013-11-16 18:49:00,68.6,60.7,29.50,South,175,5.0,7.0,76,0.00,,,0.15,Wunderground v.1.15,2013-11-17 00:49:00,
2013-11-16 18:50:00,68.5,60.6,29.50,SSE,160,5.0,5.0,76,0.00,,,0.15,Wunderground v.1.15,2013-11-17 00:50:00,
2013-11-16 18:52:00,68.5,60.6,29.50,SSE,150,5.0,5.0,76,0.00,,,0.15,Wunderground v.1.15,2013-11-17 00:52:00,
2013-11-16 18:56:00,68.5,60.6,29.49,South,173,5.0,13.0,76,0.00,,,0.15,Wunderground v.1.15,2013-11-17 00:56:00,
2013-11-16 18:59:00,68.4,60.9,29.49,South,173,5.0,13.0,77,0.00,,,0.15,Wunderground v.1.15,2013-11-17 00:59:00,
2013-11-16 19:04:00,68.2,60.7,29.49,SSE,157,5.0,6.0,77,0.00,,,0.15,Wunderground v.1.15,2013-11-17 01:04:00,
2013-11-16 19:09:00,68.1,60.6,29.49,South,171,5.0,6.0,77,0.00,,,0.15,Wunderground v.1.15,2013-11-17 01:09:00,
2013-11-16 19:12:00,68.1,60.6,29.49,SSE,162,5.0,6.0,77,0.00,,,0.15,Wunderground v.1.15,2013-11-17 01:12:00,
2013-11-16 19:14:00,68.1,61.0,29.49,South,188,5.0,6.0,78,0.00,,,0.15,Wunderground v.1.15,2013-11-17 01:14:00,
2013-11-16 19:19:00,68.1,61.0,29.49,SSE,164,6.0,13.0,78,0.00,,,0.15,Wunderground v.1.15,2013-11-17 01:19:00,
2013-11-16 19:20:00,68.0,60.9,29.49,South,170,5.0,7.0,78,0.00,,,0.15,Wunderground v.1.15,2013-11-17 01:20:00,
2013-11-16 19:24:00,68.0,60.9,29.49,South,174,5.0,9.0,78,0.00,,,0.15,Wunderground v.1.15,2013-11-17 01:24:00,
2013-11-16 19:26:00,68.0,61.2,29.49,SSE,167,5.0,9.0,79,0.00,,,0.15,Wunderground v.1.15,2013-11-17 01:26:00,
2013-11-16 19:29:00,68.0,61.2,29.49,South,169,5.0,9.0,79,0.00,,,0.15,Wunderground v.1.15,2013-11-17 01:29:00,
2013-11-16 19:32:00,68.0,61.2,29.49,SSE,167,5.0,10.0,79,0.00,,,0.15,Wunderground v.1.15,2013-11-17 01:32:00,
2013-11-16 19:34:00,68.0,61.2,29.49,South,182,5.0,10.0,79,0.00,,,0.15,Wunderground v.1.15,2013-11-17 01:34:00,
2013-11-16 19:36:00,68.0,61.2,29.49,SSE,165,6.0,11.0,79,0.00,,,0.15,Wunderground v.1.15,2013-11-17 01:36:00,
2013-11-16 19:40:00,68.1,61.3,29.49,South,178,7.0,7.0,79,0.00,,,0.15,Wunderground v.1.15,2013-11-17 01:40:00,
2013-11-16 19:42:00,68.0,61.2,29.49,South,169,7.0,7.0,79,0.00,,,0.15,Wunderground v.1.15,2013-11-17 01:42:00,
2013-11-16 19:44:00,68.0,61.2,29.49,South,183,7.0,7.0,79,0.00,,,0.15,Wunderground v.1.15,2013-11-17 01:44:00,
2013-11-16 19:46:00,68.0,61.2,29.49,SSE,157,6.0,7.0,79,0.00,,,0.15,Wunderground v.1.15,2013-11-17 01:46:00,
2013-11-16 19:50:00,67.9,61.5,29.49,SSE,160,4.0,5.0,80,0.00,,,0.15,Wunderground v.1.15,2013-11-17 01:50:00,
2013-11-16 19:52:00,67.9,61.5,29.49,South,187,4.0,7.0,80,0.00,,,0.15,Wunderground v.1.15,2013-11-17 01:52:00,
2013-11-16 19:54:00,68.0,61.6,29.49,South,178,4.0,7.0,80,0.00,,,0.15,Wunderground v.1.15,2013-11-17 01:54:00,
2013-11-16 19:59:00,67.8,61.4,29.49,South,182,4.0,9.0,80,0.00,,,0.15,Wunderground v.1.15,2013-11-17 01:59:00,
2013-11-16 20:00:00,67.9,61.5,29.49,SSE,161,4.0,7.0,80,0.00,,,0.15,Wunderground v.1.15,2013-11-17 02:00:00,
2013-11-16 20:02:00,67.8,61.4,29.49,South,183,4.0,7.0,80,0.00,,,0.15,Wunderground v.1.15,2013-11-17 02:02:00,
2013-11-16 20:04:00,67.8,61.4,29.49,West,271,4.0,7.0,80,0.00,,,0.15,Wunderground v.1.15,2013-11-17 02:04:00,
2013-11-16 20:06:00,67.7,61.3,29.49,South,191,5.0,7.0,80,0.00,,,0.15,Wunderground v.1.15,2013-11-17 02:06:00,
2013-11-16 20:10:00,67.6,61.6,29.49,South,178,5.0,5.0,81,0.00,,,0.15,Wunderground v.1.15,2013-11-17 02:10:00,
2013-11-16 20:12:00,67.5,61.5,29.49,South,176,5.0,7.0,81,0.00,,,0.15,Wunderground v.1.15,2013-11-17 02:12:00,
2013-11-16 20:16:00,67.4,61.4,29.49,SSE,161,5.0,7.0,81,0.00,,,0.15,Wunderground v.1.15,2013-11-17 02:16:00,
2013-11-16 20:19:00,67.3,61.3,29.49,South,175,4.0,7.0,81,0.00,,,0.15,Wunderground v.1.15,2013-11-17 02:19:00,
2013-11-16 20:22:00,67.2,61.5,29.48,SSE,163,5.0,8.0,82,0.00,,,0.15,Wunderground v.1.15,2013-11-17 02:22:00,
2013-11-16 20:24:00,67.2,61.5,29.48,SE,145,5.0,8.0,82,0.00,,,0.15,Wunderground v.1.15,2013-11-17 02:24:00,
2013-11-16 20:29:00,67.2,61.5,29.49,South,179,4.0,8.0,82,0.00,,,0.15,Wunderground v.1.15,2013-11-17 02:29:00,
2013-11-16 20:30:00,67.2,61.5,29.49,SW,214,5.0,5.0,82,0.00,,,0.15,Wunderground v.1.15,2013-11-17 02:30:00,
2013-11-16 20:32:00,67.2,61.5,29.49,SSE,166,5.0,5.0,82,0.00,,,0.15,Wunderground v.1.15,2013-11-17 02:32:00,
2013-11-16 20:34:00,67.2,61.5,29.48,South,173,4.0,7.0,82,0.00,,,0.15,Wunderground v.1.15,2013-11-17 02:34:00,
2013-11-16 20:36:00,67.2,61.5,29.49,South,178,5.0,12.0,82,0.00,,,0.15,Wunderground v.1.15,2013-11-17 02:36:00,
2013-11-16 20:40:00,67.3,62.0,29.49,South,178,5.0,7.0,83,0.00,,,0.15,Wunderground v.1.15,2013-11-17 02:40:00,
2013-11-16 20:42:00,67.3,62.0,29.49,South,184,5.0,7.0,83,0.00,,,0.15,Wunderground v.1.15,2013-11-17 02:42:00,
2013-11-16 20:44:00,67.3,62.0,29.48,SSE,161,5.0,7.0,83,0.00,,,0.15,Wunderground v.1.15,2013-11-17 02:44:00,
2013-11-16 20:46:00,67.3,62.0,29.48,South,186,5.0,7.0,83,0.00,,,0.15,Wunderground v.1.15,2013-11-17 02:46:00,
2013-11-16 20:50:00,67.4,62.1,29.49,South,177,4.0,7.0,83,0.00,,,0.15,Wunderground v.1.15,2013-11-17 02:50:00,
2013-11-16 20:52:00,67.5,62.2,29.49,South,184,4.0,7.0,83,0.00,,,0.15,Wunderground v.1.15,2013-11-17 02:52:00,
2013-11-16 20:54:00,67.5,62.2,29.48,South,169,4.0,7.0,83,0.00,,,0.15,Wunderground v.1.15,2013-11-17 02:54:00,
2013-11-16 20:59:00,67.6,62.3,29.48,South,179,5.0,7.0,83,0.00,,,0.15,Wunderground v.1.15,2013-11-17 02:59:00,
2013-11-16 21:00:00,67.7,62.3,29.48,SSE,163,5.0,5.0,83,0.00,,,0.15,Wunderground v.1.15,2013-11-17 03:00:00,
2013-11-16 21:02:00,67.7,62.3,29.48,SSE,159,5.0,5.0,83,0.00,,,0.15,Wunderground v.1.15,2013-11-17 03:02:00,
2013-11-16 21:04:00,67.9,62.5,29.48,South,171,6.0,6.0,83,0.00,,,0.15,Wunderground v.1.15,2013-11-17 03:04:00,
2013-11-16 21:06:00,68.0,62.6,29.48,South,184,6.0,6.0,83,0.00,,,0.15,Wunderground v.1.15,2013-11-17 03:06:00,
2013-11-16 21:09:00,68.1,62.4,29.48,South,180,6.0,6.0,82,0.00,,,0.15,Wunderground v.1.15,2013-11-17 03:09:00,
2013-11-16 21:10:00,68.1,62.4,29.48,South,179,5.0,5.0,82,0.00,,,0.15,Wunderground v.1.15,2013-11-17 03:10:00,
2013-11-16 21:12:00,68.1,62.4,29.48,SE,146,5.0,7.0,82,0.00,,,0.15,Wunderground v.1.15,2013-11-17 03:12:00,
2013-11-16 21:14:00,68.1,62.7,29.48,SSE,159,5.0,11.0,83,0.00,,,0.15,Wunderground v.1.15,2013-11-17 03:14:00,
2013-11-16 21:16:00,68.2,62.5,29.48,SE,136,5.0,11.0,82,0.00,,,0.15,Wunderground v.1.15,2013-11-17 03:16:00,
2013-11-16 21:20:00,68.3,62.6,29.48,South,172,5.0,5.0,82,0.00,,,0.15,Wunderground v.1.15,2013-11-17 03:20:00,
2013-11-16 21:22:00,68.3,62.6,29.48,South,169,5.0,5.0,82,0.00,,,0.15,Wunderground v.1.15,2013-11-17 03:22:00,
2013-11-16 21:26:00,68.3,62.6,29.48,SSE,163,4.0,5.0,82,0.00,,,0.15,Wunderground v.1.15,2013-11-17 03:26:00,
2013-11-16 21:29:00,68.4,62.7,29.48,SSW,211,4.0,5.0,82,0.00,,,0.15,Wunderground v.1.15,2013-11-17 03:29:00,
2013-11-16 21:30:00,68.4,62.7,29.48,South,191,4.0,5.0,82,0.00,,,0.15,Wunderground v.1.15,2013-11-17 03:30:00,
2013-11-16 21:32:00,68.5,62.8,29.49,WNW,290,4.0,5.0,82,0.00,,,0.15,Wunderground v.1.15,2013-11-17 03:32:00,
2013-11-16 21:36:00,68.5,62.8,29.48,South,187,5.0,5.0,82,0.00,,,0.15,Wunderground v.1.15,2013-11-17 03:36:00,
2013-11-16 21:39:00,68.5,62.8,29.48,South,190,4.0,5.0,82,0.00,,,0.15,Wunderground v.1.15,2013-11-17 03:39:00,
2013-11-16 21:40:00,68.5,62.8,29.48,SW,235,4.0,4.0,82,0.00,,,0.15,Wunderground v.1.15,2013-11-17 03:40:00,
2013-11-16 21:44:00,68.6,62.9,29.48,SSE,154,5.0,5.0,82,0.00,,,0.15,Wunderground v.1.15,2013-11-17 03:44:00,
2013-11-16 21:50:00,68.8,63.1,29.48,South,181,5.0,5.0,82,0.00,,,0.15,Wunderground v.1.15,2013-11-17 03:50:00,
2013-11-16 21:56:00,69.0,63.3,29.48,SSE,155,5.0,7.0,82,0.00,,,0.15,Wunderground v.1.15,2013-11-17 03:56:00,
2013-11-16 22:02:00,69.2,63.1,29.48,South,173,5.0,8.0,81,0.00,,,0.15,Wunderground v.1.15,2013-11-17 04:02:00,
2013-11-16 22:04:00,69.2,63.1,29.48,South,172,5.0,8.0,81,0.00,,,0.15,Wunderground v.1.15,2013-11-17 04:04:00,
2013-11-16 22:06:00,69.2,63.1,29.48,South,180,5.0,8.0,81,0.00,,,0.15,Wunderground v.1.15,2013-11-17 04:06:00,
2013-11-16 22:08:00,69.4,63.3,29.48,South,184,5.0,8.0,81,0.00,,,0.15,Wunderground v.1.15,2013-11-17 04:08:00,
2013-11-16 22:10:00,69.4,63.3,29.48,SSE,165,5.0,5.0,81,0.00,,,0.15,Wunderground v.1.15,2013-11-17 04:10:00,
2013-11-16 22:12:00,69.4,63.3,29.48,SSE,161,5.0,5.0,81,0.00,,,0.15,Wunderground v.1.15,2013-11-17 04:12:00,
2013-11-16 22:19:00,69.5,63.4,29.48,SSE,168,4.0,6.0,81,0.00,,,0.15,Wunderground v.1.15,2013-11-17 04:19:00,
2013-11-16 22:20:00,69.5,63.4,29.48,South,171,4.0,4.0,81,0.00,,,0.15,Wunderground v.1.15,2013-11-17 04:20:00,
2013-11-16 22:22:00,69.5,63.8,29.47,South,178,5.0,6.0,82,0.00,,,0.15,Wunderground v.1.15,2013-11-17 04:22:00,
2013-11-16 22:24:00,69.5,63.4,29.48,SSE,155,4.0,6.0,81,0.00,,,0.15,Wunderground v.1.15,2013-11-17 04:24:00,
2013-11-16 22:29:00,69.5,63.8,29.47,SSE,168,4.0,6.0,82,0.00,,,0.15,Wunderground v.1.15,2013-11-17 04:29:00,
2013-11-16 22:30:00,69.6,63.9,29.48,SE,146,4.0,4.0,82,0.00,,,0.15,Wunderground v.1.15,2013-11-17 04:30:00,
2013-11-16 22:36:00,69.8,64.1,29.47,SSE,161,5.0,6.0,82,0.00,,,0.15,Wunderground v.1.15,2013-11-17 04:36:00,
2013-11-16 22:39:00,69.8,64.1,29.47,South,174,5.0,6.0,82,0.00,,,0.15,Wunderground v.1.15,2013-11-17 04:39:00,
2013-11-16 22:40:00,69.9,64.2,29.47,SSE,156,6.0,10.0,82,0.00,,,0.15,Wunderground v.1.15,2013-11-17 04:40:00,
2013-11-16 22:42:00,69.9,64.2,29.47,SSW,195,6.0,10.0,82,0.00,,,0.15,Wunderground v.1.15,2013-11-17 04:42:00,
2013-11-16 22:44:00,69.9,64.2,29.48,SSE,167,6.0,10.0,82,0.00,,,0.15,Wunderground v.1.15,2013-11-17 04:44:00,
2013-11-16 22:46:00,69.9,64.2,29.47,South,186,5.0,10.0,82,0.00,,,0.15,Wunderground v.1.15,2013-11-17 04:46:00,
2013-11-16 22:49:00,69.9,64.2,29.47,SSE,167,5.0,10.0,82,0.00,,,0.15,Wunderground v.1.15,2013-11-17 04:49:00,
2013-11-16 22:50:00,69.9,64.2,29.47,SSE,168,5.0,5.0,82,0.00,,,0.15,Wunderground v.1.15,2013-11-17 04:50:00,
2013-11-16 22:52:00,69.9,64.2,29.47,SSE,159,5.0,5.0,82,0.00,,,0.15,Wunderground v.1.15,2013-11-17 04:52:00,
2013-11-16 22:56:00,69.9,64.2,29.47,South,178,5.0,5.0,82,0.00,,,0.15,Wunderground v.1.15,2013-11-17 04:56:00,
2013-11-16 22:59:00,69.9,64.2,29.47,SSE,161,4.0,5.0,82,0.00,,,0.15,Wunderground v.1.15,2013-11-17 04:59:00,
2013-11-16 23:02:00,69.9,64.2,29.47,South,186,4.0,15.0,82,0.00,,,0.15,Wunderground v.1.15,2013-11-17 05:02:00,
2013-11-16 23:04:00,69.9,64.2,29.47,SSE,155,5.0,15.0,82,0.00,,,0.15,Wunderground v.1.15,2013-11-17 05:04:00,
2013-11-16 23:06:00,70.0,64.2,29.47,South,185,5.0,15.0,82,0.00,,,0.15,Wunderground v.1.15,2013-11-17 05:06:00,
2013-11-16 23:10:00,70.1,64.3,29.47,South,182,6.0,7.0,82,0.00,,,0.15,Wunderground v.1.15,2013-11-17 05:10:00,
2013-11-16 23:12:00,70.1,64.3,29.47,South,175,6.0,7.0,82,0.00,,,0.15,Wunderground v.1.15,2013-11-17 05:12:00,
2013-11-16 23:14:00,70.1,64.3,29.48,SSE,164,5.0,7.0,82,0.00,,,0.15,Wunderground v.1.15,2013-11-17 05:14:00,
2013-11-16 23:16:00,70.1,64.3,29.48,SSW,205,4.0,11.0,82,0.00,,,0.15,Wunderground v.1.15,2013-11-17 05:16:00,
2013-11-16 23:19:00,70.0,64.2,29.48,SSW,207,4.0,11.0,82,0.00,,,0.15,Wunderground v.1.15,2013-11-17 05:19:00,
2013-11-16 23:20:00,70.0,64.2,29.48,South,179,4.0,9.0,82,0.00,,,0.15,Wunderground v.1.15,2013-11-17 05:20:00,
2013-11-16 23:24:00,70.1,64.3,29.47,SSE,163,4.0,9.0,82,0.00,,,0.15,Wunderground v.1.15,2013-11-17 05:24:00,
2013-11-16 23:26:00,70.1,64.3,29.48,SSE,159,5.0,9.0,82,0.00,,,0.15,Wunderground v.1.15,2013-11-17 05:26:00,
2013-11-16 23:28:00,70.1,64.3,29.48,SSW,194,5.0,9.0,82,0.00,,,0.15,Wunderground v.1.15,2013-11-17 05:28:00,
2013-11-16 23:30:00,70.1,64.3,29.47,SSE,162,5.0,5.0,82,0.00,,,0.15,Wunderground v.1.15,2013-11-17 05:30:00,
2013-11-16 23:34:00,70.1,64.3,29.48,WNW,296,5.0,9.0,82,0.00,,,0.15,Wunderground v.1.15,2013-11-17 05:34:00,
2013-11-16 23:39:00,70.1,64.3,29.48,SSE,166,5.0,9.0,82,0.00,,,0.15,Wunderground v.1.15,2013-11-17 05:39:00,
2013-11-16 23:40:00,70.1,64.3,29.48,South,185,5.0,5.0,82,0.00,,,0.15,Wunderground v.1.15,2013-11-17 05:40:00,
2013-11-16 23:42:00,70.1,64.3,29.47,SSW,192,5.0,5.0,82,0.00,,,0.15,Wunderground v.1.15,2013-11-17 05:42:00,
2013-11-16 23:44:00,70.0,64.6,29.47,South,178,5.0,5.0,83,0.00,,,0.15,Wunderground v.1.15,2013-11-17 05:44:00,
2013-11-16 23:46:00,70.0,64.6,29.48,SW,231,4.0,5.0,83,0.00,,,0.15,Wunderground v.1.15,2013-11-17 05:46:00,
2013-11-16 23:52:00,69.8,64.4,29.48,SSW,199,4.0,4.0,83,0.00,,,0.15,Wunderground v.1.15,2013-11-17 05:52:00,
2013-11-16 23:54:00,69.8,64.4,29.48,South,183,4.0,5.0,83,0.00,,,0.15,Wunderground v.1.15,2013-11-17 05:54:00,
2013-11-16 23:56:00,69.8,64.4,29.48,SSE,165,4.0,5.0,83,0.00,,,0.15,Wunderground v.1.15,2013-11-17 05:56:00,
2013-11-16 23:59:00,69.8,64.4,29.48,South,169,4.0,5.0,83,0.00,,,0.15,Wunderground v.1.15,2013-11-17 05:59:00,